TimeCDT,TemperatureF,Dew PointF,Humidity,Sea Level PressureIn,VisibilityMPH,Wind Direction,Wind SpeedMPH,Gust SpeedMPH,PrecipitationIn,Events,Conditions,WindDirDegrees,DateUTC
12:15 AM,73.0,66.4,80,29.88,10.0,South,13.8,20.7,N/A,,Clear,170,2013-09-18 05:15:00
12:35 AM,72.7,66.6,81,29.87,10.0,South,13.8,18.4,N/A,,Clear,170,2013-09-18 05:35:00
12:55 AM,72.5,66.6,82,29.87,10.0,South,12.7,20.7,N/A,,Clear,180,2013-09-18 05:55:00
1:15 AM,72.0,66.7,84,29.87,10.0,South,12.7,18.4,N/A,,Clear,170,2013-09-18 06:15:00
1:35 AM,71.8,66.7,84,29.87,10.0,South,12.7,18.4,N/A,,Clear,180,2013-09-18 06:35:00
1:55 AM,71.6,66.9,85,29.87,10.0,South,11.5,18.4,N/A,,Clear,180,2013-09-18 06:55:00
2:15 AM,71.4,66.9,86,29.87,10.0,South,15.0,19.6,N/A,,Clear,180,2013-09-18 07:15:00
2:35 AM,71.2,66.7,86,29.86,10.0,South,12.7,17.3,N/A,,Clear,180,2013-09-18 07:35:00
2:55 AM,71.1,66.7,86,29.85,7.0,South,11.5,-,N/A,,Clear,180,2013-09-18 07:55:00
3:15 AM,71.1,66.6,86,29.85,10.0,South,10.4,-,N/A,,Clear,190,2013-09-18 08:15:00
3:35 AM,70.9,66.6,86,29.84,10.0,South,11.5,16.1,N/A,,Clear,180,2013-09-18 08:35:00
3:55 AM,70.7,66.4,86,29.83,10.0,South,11.5,17.3,N/A,,Clear,180,2013-09-18 08:55:00
4:15 AM,70.9,66.2,85,29.83,10.0,South,11.5,-,N/A,,Clear,180,2013-09-18 09:15:00
4:35 AM,70.3,66.2,87,29.82,10.0,South,11.5,16.1,N/A,,Clear,180,2013-09-18 09:35:00
4:55 AM,70.2,66.2,87,29.82,10.0,South,12.7,16.1,N/A,,Clear,180,2013-09-18 09:55:00
5:15 AM,70.3,66.2,87,29.81,10.0,South,11.5,-,N/A,,Clear,190,2013-09-18 10:15:00
5:35 AM,70.7,66.0,85,29.81,10.0,South,11.5,17.3,N/A,,Clear,190,2013-09-18 10:35:00
5:55 AM,70.9,66.2,85,29.81,10.0,South,11.5,17.3,N/A,,Clear,190,2013-09-18 10:55:00
6:15 AM,70.7,66.2,86,29.81,10.0,South,10.4,17.3,N/A,,Clear,190,2013-09-18 11:15:00
6:35 AM,70.7,66.0,85,29.81,10.0,South,9.2,-,N/A,,Clear,190,2013-09-18 11:35:00
6:55 AM,70.2,65.8,86,29.82,10.0,South,6.9,-,N/A,,Clear,180,2013-09-18 11:55:00
7:15 AM,70.7,66.0,85,29.82,10.0,South,10.4,-,N/A,,Clear,180,2013-09-18 12:15:00
7:35 AM,71.1,66.2,85,29.82,10.0,South,11.5,16.1,N/A,,Clear,190,2013-09-18 12:35:00
7:55 AM,71.8,66.4,83,29.82,10.0,South,11.5,-,N/A,,Clear,190,2013-09-18 12:55:00
8:15 AM,72.9,66.6,81,29.82,10.0,South,12.7,19.6,N/A,,Clear,190,2013-09-18 13:15:00
8:35 AM,73.8,66.7,79,29.82,10.0,South,13.8,18.4,N/A,,Clear,190,2013-09-18 13:35:00
8:55 AM,75.6,66.9,74,29.81,10.0,South,13.8,19.6,N/A,,Clear,190,2013-09-18 13:55:00
9:15 AM,77.2,67.1,71,29.81,10.0,South,17.3,24.2,N/A,,Clear,190,2013-09-18 14:15:00
9:35 AM,78.8,66.7,66,29.82,10.0,SSW,17.3,24.2,N/A,,Clear,200,2013-09-18 14:35:00
9:55 AM,79.9,66.4,63,29.81,10.0,SSW,17.3,25.3,N/A,,Clear,200,2013-09-18 14:55:00
10:15 AM,81.3,66.4,60,29.81,10.0,SSW,17.3,27.6,N/A,,Clear,200,2013-09-18 15:15:00
10:35 AM,81.9,66.4,59,29.81,10.0,South,19.6,27.6,N/A,,Clear,190,2013-09-18 15:35:00
10:55 AM,82.4,66.2,58,29.80,10.0,SSW,19.6,25.3,N/A,,Clear,210,2013-09-18 15:55:00
11:15 AM,83.7,66.9,57,29.79,10.0,SSW,19.6,27.6,N/A,,Clear,200,2013-09-18 16:15:00
11:35 AM,84.4,65.8,54,29.79,10.0,SSW,20.7,33.4,N/A,,Clear,200,2013-09-18 16:35:00
11:55 AM,85.8,65.5,50,29.78,10.0,SSW,20.7,27.6,N/A,,Clear,200,2013-09-18 16:55:00
12:15 PM,87.1,65.5,48,29.78,10.0,SSW,20.7,29.9,N/A,,Clear,200,2013-09-18 17:15:00
12:35 PM,87.6,65.3,47,29.76,10.0,SSW,19.6,27.6,N/A,,Clear,210,2013-09-18 17:35:00
12:55 PM,88.3,65.5,47,29.76,10.0,SSW,19.6,31.1,N/A,,Clear,210,2013-09-18 17:55:00
1:15 PM,88.7,65.1,45,29.75,10.0,SSW,19.6,26.5,N/A,,Clear,210,2013-09-18 18:15:00
1:35 PM,89.6,64.9,44,29.74,10.0,SSW,17.3,26.5,N/A,,Clear,200,2013-09-18 18:35:00
1:55 PM,90.3,64.9,43,29.74,10.0,South,20.7,29.9,N/A,,Clear,190,2013-09-18 18:55:00
2:15 PM,90.9,65.1,42,29.73,10.0,SSW,19.6,28.8,N/A,,Clear,200,2013-09-18 19:15:00
2:35 PM,91.2,64.6,41,29.72,10.0,SSW,20.7,32.2,N/A,,Clear,200,2013-09-18 19:35:00
2:55 PM,91.8,64.6,40,29.72,10.0,SSW,19.6,29.9,N/A,,Clear,200,2013-09-18 19:55:00
3:15 PM,93.2,64.4,38,29.72,10.0,SSW,17.3,24.2,N/A,,Clear,210,2013-09-18 20:15:00
3:35 PM,92.7,63.7,38,29.71,10.0,SSW,20.7,33.4,N/A,,Clear,210,2013-09-18 20:35:00
3:55 PM,92.8,63.3,37,29.71,10.0,SSW,23.0,31.1,N/A,,Clear,200,2013-09-18 20:55:00
4:15 PM,93.2,63.0,36,29.71,10.0,SSW,20.7,29.9,N/A,,Clear,210,2013-09-18 21:15:00
4:35 PM,93.4,63.0,36,29.71,10.0,SSW,24.2,29.9,N/A,,Clear,210,2013-09-18 21:35:00
4:55 PM,93.2,61.3,34,29.71,10.0,SSW,20.7,28.8,N/A,,Clear,210,2013-09-18 21:55:00
5:15 PM,93.2,61.7,35,29.70,10.0,SSW,18.4,28.8,N/A,,Clear,210,2013-09-18 22:15:00
5:35 PM,93.0,61.7,35,29.70,10.0,SSW,21.9,28.8,N/A,,Clear,200,2013-09-18 22:35:00
5:55 PM,92.7,61.7,36,29.70,10.0,SSW,17.3,24.2,N/A,,Clear,210,2013-09-18 22:55:00
6:15 PM,92.1,60.8,35,29.70,10.0,SSW,13.8,-,N/A,,Clear,200,2013-09-18 23:15:00
6:35 PM,91.4,59.9,35,29.70,10.0,SSW,15.0,24.2,N/A,,Clear,210,2013-09-18 23:35:00
6:55 PM,90.1,60.4,37,29.70,10.0,SSW,13.8,19.6,N/A,,Clear,200,2013-09-18 23:55:00
7:15 PM,88.2,60.6,39,29.70,10.0,South,11.5,17.3,N/A,,Clear,190,2013-09-19 00:15:00
7:35 PM,86.9,61.0,42,29.70,10.0,South,10.4,-,N/A,,Clear,190,2013-09-19 00:35:00
7:55 PM,85.1,61.3,45,29.71,10.0,South,8.1,-,N/A,,Clear,180,2013-09-19 00:55:00
8:15 PM,83.5,62.2,49,29.71,10.0,South,9.2,-,N/A,,Clear,180,2013-09-19 01:15:00
8:35 PM,83.3,63.5,51,29.71,10.0,South,9.2,-,N/A,,Clear,180,2013-09-19 01:35:00
8:55 PM,82.6,63.1,52,29.72,10.0,South,9.2,-,N/A,,Clear,170,2013-09-19 01:55:00
9:15 PM,82.4,62.2,50,29.73,10.0,South,10.4,-,N/A,,Clear,170,2013-09-19 02:15:00
9:35 PM,82.4,61.5,49,29.73,10.0,South,11.5,-,N/A,,Clear,170,2013-09-19 02:35:00
9:55 PM,81.9,60.8,49,29.74,10.0,South,12.7,-,N/A,,Clear,170,2013-09-19 02:55:00
10:15 PM,81.0,60.8,50,29.75,10.0,South,12.7,-,N/A,,Clear,180,2013-09-19 03:15:00
10:35 PM,80.1,60.8,52,29.75,10.0,South,10.4,-,N/A,,Clear,180,2013-09-19 03:35:00
10:55 PM,79.7,61.2,53,29.76,10.0,South,11.5,-,N/A,,Clear,180,2013-09-19 03:55:00
11:15 PM,79.7,61.0,53,29.76,10.0,South,12.7,-,N/A,,Clear,190,2013-09-19 04:15:00
11:35 PM,80.2,60.4,51,29.76,10.0,South,15.0,20.7,N/A,,Clear,180,2013-09-19 04:35:00
11:55 PM,81.5,59.9,48,29.76,10.0,South,17.3,23.0,N/A,,Clear,190,2013-09-19 04:55:00